Airfield :
LOGIN :

Register | Disclaimer

   EN    FR    IT 

 










Legend :    VFR   Marginal VFR   IFR   Intensive IFR   Very Intensive IFR
Visi :
Ceiling :
>= 8 km
>= 3000ft
5 to 8 km
1000 to 3000 ft
1500m to 5 km
500 to 1000 ft
800 to 1500m
200 to 500 ft
< 800m
< 200 ft
Symbols :   Thunderstorms  Fog  Heavy snow  Heavy precipitations  Wind > 20 kt
SIGMETs :     Misc.  Thunderstorms  Icing  Turbulence  Mountain Waves  Volcanic Ashes







- Airport Elevation : 284 ft


EGUW - RAF Wattisham

CURRENT METAR :
  • 251350Z 18005KT 4500 HZ BKN012 BKN020 17/14 Q1018 GRN BECMG 7000 FEW012 BKN020 WHT

EXPIRED METARs :
  • 251250Z 19004KT 4500 HZ FEW010 OVC015 17/15 Q1018 GRN BECMG 7000 FEW018 WHT
  • 251226Z 18003KT 4200 HZ SCT010 BKN012 17/15 Q1018 GRN BECMG 7000 FEW012 WHT
  • 251150Z 17002KT 3500 HZ OVC006 16/15 Q1017 YLO1 BECMG 5000 OVC007 GRN

Expired Forecast.
No reported NOTAMs for that airfield.



MET'MAP, your aeronautical weather chart ! - Copyright ORBIFLY December 2007 - Disclaimer

ORBIFLY MET'MAP TEAM :

Programming & Development : Alexandra Zaïnal
Concept & Development : Baudouin d'Aumeries
Co-Development & Prog : Marc-Olivier Méhu
Technical & hardware support : Manuel Goepfert

Contact : metmap@orbifly.com




SOURCES & CREDITS :

   NOAA